Year,Month,Day,Hour,Minute,Value (Times are PST for barometer in hPa)
2013,09,29,00,00,989.06
2013,09,29,00,01,989.10
2013,09,29,00,02,989.10
2013,09,29,00,03,989.10
2013,09,29,00,04,989.06
2013,09,29,00,05,989.03
2013,09,29,00,06,989.03
2013,09,29,00,07,989.03
2013,09,29,00,08,989.01
2013,09,29,00,09,989.06
2013,09,29,00,10,989.07
2013,09,29,00,11,989.13
2013,09,29,00,12,989.10
2013,09,29,00,13,989.10
2013,09,29,00,14,989.09
2013,09,29,00,15,989.04
2013,09,29,00,16,989.11
2013,09,29,00,17,989.16
2013,09,29,00,18,989.13
2013,09,29,00,19,989.10
2013,09,29,00,20,989.13
2013,09,29,00,21,989.13
2013,09,29,00,22,989.13
2013,09,29,00,23,989.09
2013,09,29,00,24,988.99
2013,09,29,00,25,988.93
2013,09,29,00,26,988.90
2013,09,29,00,27,989.00
2013,09,29,00,28,989.02
2013,09,29,00,29,988.93
2013,09,29,00,30,988.92
2013,09,29,00,31,988.86
2013,09,29,00,32,988.83
2013,09,29,00,33,988.83
2013,09,29,00,34,988.86
2013,09,29,00,35,988.86
2013,09,29,00,36,988.97
2013,09,29,00,37,989.03
2013,09,29,00,38,989.03
2013,09,29,00,39,989.07
2013,09,29,00,40,989.14
2013,09,29,00,41,989.21
2013,09,29,00,42,989.27
2013,09,29,00,43,989.26
2013,09,29,00,44,989.20
2013,09,29,00,45,989.13
2013,09,29,00,46,989.13
2013,09,29,00,47,989.10
2013,09,29,00,48,989.10
2013,09,29,00,49,989.13
2013,09,29,00,50,989.12
2013,09,29,00,51,989.01
2013,09,29,00,52,989.10
2013,09,29,00,53,989.11
2013,09,29,00,54,989.16
2013,09,29,00,55,989.20
2013,09,29,00,56,989.27
2013,09,29,00,57,989.30
2013,09,29,00,58,989.33
2013,09,29,00,59,989.30
2013,09,29,01,00,989.30
2013,09,29,01,01,989.27
2013,09,29,01,02,989.27
2013,09,29,01,03,989.23
2013,09,29,01,04,989.20
2013,09,29,01,05,989.23
2013,09,29,01,06,989.21
2013,09,29,01,07,989.27
2013,09,29,01,08,989.30
2013,09,29,01,09,989.28
2013,09,29,01,10,989.33
2013,09,29,01,11,989.37
2013,09,29,01,12,989.37
2013,09,29,01,13,989.40
2013,09,29,01,14,989.40
2013,09,29,01,15,989.40
2013,09,29,01,16,989.37
2013,09,29,01,17,989.33
2013,09,29,01,18,989.27
2013,09,29,01,19,989.28
2013,09,29,01,20,989.37
2013,09,29,01,21,989.33
2013,09,29,01,22,989.30
2013,09,29,01,23,989.33
2013,09,29,01,24,989.30
2013,09,29,01,25,989.28
2013,09,29,01,26,989.33
2013,09,29,01,27,989.30
2013,09,29,01,28,989.27
2013,09,29,01,29,989.30
2013,09,29,01,30,989.30
2013,09,29,01,31,989.30
2013,09,29,01,32,989.30
2013,09,29,01,33,989.30
2013,09,29,01,34,989.30
2013,09,29,01,35,989.31
2013,09,29,01,36,989.36
2013,09,29,01,37,989.27
2013,09,29,01,38,989.27
2013,09,29,01,39,989.30
2013,09,29,01,40,989.30
2013,09,29,01,41,989.30
2013,09,29,01,42,989.27
2013,09,29,01,43,989.23
2013,09,29,01,44,989.27
2013,09,29,01,45,989.28
2013,09,29,01,46,989.37
2013,09,29,01,47,989.37
2013,09,29,01,48,989.33
2013,09,29,01,49,989.37
2013,09,29,01,50,989.37
2013,09,29,01,51,989.40
2013,09,29,01,52,989.40
2013,09,29,01,53,989.44
2013,09,29,01,54,989.44
2013,09,29,01,55,989.47
2013,09,29,01,56,989.49
2013,09,29,01,57,989.40
2013,09,29,01,58,989.40
2013,09,29,01,59,989.44
2013,09,29,02,00,989.44
2013,09,29,02,01,989.46
2013,09,29,02,02,989.40
2013,09,29,02,03,989.47
2013,09,29,02,04,989.47
2013,09,29,02,05,989.50
2013,09,29,02,06,989.47
2013,09,29,02,07,989.50
2013,09,29,02,08,989.50
2013,09,29,02,09,989.54
2013,09,29,02,10,989.54
2013,09,29,02,11,989.50
2013,09,29,02,12,989.50
2013,09,29,02,13,989.47
2013,09,29,02,14,989.50
2013,09,29,02,15,989.51
2013,09,29,02,16,989.59
2013,09,29,02,17,989.54
2013,09,29,02,18,989.57
2013,09,29,02,19,989.60
2013,09,29,02,20,989.64
2013,09,29,02,21,989.64
2013,09,29,02,22,989.60
2013,09,29,02,23,989.57
2013,09,29,02,24,989.64
2013,09,29,02,25,989.66
2013,09,29,02,26,989.60
2013,09,29,02,27,989.65
2013,09,29,02,28,989.73
2013,09,29,02,29,989.64
2013,09,29,02,30,989.57
2013,09,29,02,31,989.60
2013,09,29,02,32,989.64
2013,09,29,02,33,989.67
2013,09,29,02,34,989.63
2013,09,29,02,35,989.50
2013,09,29,02,36,989.44
2013,09,29,02,37,989.40
2013,09,29,02,38,989.44
2013,09,29,02,39,989.46
2013,09,29,02,40,989.41
2013,09,29,02,41,989.50
2013,09,29,02,42,989.50
2013,09,29,02,43,989.48
2013,09,29,02,44,989.54
2013,09,29,02,45,989.47
2013,09,29,02,46,989.53
2013,09,29,02,47,989.44
2013,09,29,02,48,989.40
2013,09,29,02,49,989.40
2013,09,29,02,50,989.40
2013,09,29,02,51,989.44
2013,09,29,02,52,989.47
2013,09,29,02,53,989.44
2013,09,29,02,54,989.44
2013,09,29,02,55,989.40
2013,09,29,02,56,989.44
2013,09,29,02,57,989.44
2013,09,29,02,58,989.40
2013,09,29,02,59,989.33
2013,09,29,03,00,989.30
2013,09,29,03,01,989.33
2013,09,29,03,02,989.30
2013,09,29,03,03,989.30
2013,09,29,03,04,989.30
2013,09,29,03,05,989.33
2013,09,29,03,06,989.30
2013,09,29,03,07,989.30
2013,09,29,03,08,989.30
2013,09,29,03,09,989.33
2013,09,29,03,10,989.33
2013,09,29,03,11,989.37
2013,09,29,03,12,989.34
2013,09,29,03,13,989.41
2013,09,29,03,14,989.47
2013,09,29,03,15,989.50
2013,09,29,03,16,989.50
2013,09,29,03,17,989.50
2013,09,29,03,18,989.50
2013,09,29,03,19,989.54
2013,09,29,03,20,989.50
2013,09,29,03,21,989.54
2013,09,29,03,22,989.50
2013,09,29,03,23,989.50
2013,09,29,03,24,989.54
2013,09,29,03,25,989.54
2013,09,29,03,26,989.50
2013,09,29,03,27,989.50
2013,09,29,03,28,989.50
2013,09,29,03,29,989.50
2013,09,29,03,30,989.53
2013,09,29,03,31,989.47
2013,09,29,03,32,989.50
2013,09,29,03,33,989.43
2013,09,29,03,34,989.33
2013,09,29,03,35,989.37
2013,09,29,03,36,989.44
2013,09,29,03,37,989.44
2013,09,29,03,38,989.47
2013,09,29,03,39,989.50
2013,09,29,03,40,989.54
2013,09,29,03,41,989.57
2013,09,29,03,42,989.60
2013,09,29,03,43,989.60
2013,09,29,03,44,989.63
2013,09,29,03,45,989.57
2013,09,29,03,46,989.50
2013,09,29,03,47,989.44
2013,09,29,03,48,989.40
2013,09,29,03,49,989.40
2013,09,29,03,50,989.43
2013,09,29,03,51,989.37
2013,09,29,03,52,989.37
2013,09,29,03,53,989.30
2013,09,29,03,54,989.28
2013,09,29,03,55,989.40
2013,09,29,03,56,989.44
2013,09,29,03,57,989.40
2013,09,29,03,58,989.47
2013,09,29,03,59,989.47
2013,09,29,04,00,989.44
2013,09,29,04,01,989.50
2013,09,29,04,02,989.54
2013,09,29,04,03,989.50
2013,09,29,04,04,989.50
2013,09,29,04,05,989.57
2013,09,29,04,06,989.54
2013,09,29,04,07,989.50
2013,09,29,04,08,989.58
2013,09,29,04,09,989.64
2013,09,29,04,10,989.64
2013,09,29,04,11,989.67
2013,09,29,04,12,989.67
2013,09,29,04,13,989.67
2013,09,29,04,14,989.77
2013,09,29,04,15,989.81
2013,09,29,04,16,989.77
2013,09,29,04,17,989.77
2013,09,29,04,18,989.74
2013,09,29,04,19,989.83
2013,09,29,04,20,989.77
2013,09,29,04,21,989.81
2013,09,29,04,22,989.77
2013,09,29,04,23,989.81
2013,09,29,04,24,989.80
2013,09,29,04,25,989.71
2013,09,29,04,26,989.72
2013,09,29,04,27,989.76
2013,09,29,04,28,989.67
2013,09,29,04,29,989.64
2013,09,29,04,30,989.60
2013,09,29,04,31,989.60
2013,09,29,04,32,989.60
2013,09,29,04,33,989.67
2013,09,29,04,34,989.60
2013,09,29,04,35,989.57
2013,09,29,04,36,989.50
2013,09,29,04,37,989.46
2013,09,29,04,38,989.40
2013,09,29,04,39,989.40
2013,09,29,04,40,989.37
2013,09,29,04,41,989.37
2013,09,29,04,42,989.37
2013,09,29,04,43,989.30
2013,09,29,04,44,989.40
2013,09,29,04,45,989.37
2013,09,29,04,46,989.33
2013,09,29,04,47,989.33
2013,09,29,04,48,989.33
2013,09,29,04,49,989.33
2013,09,29,04,50,989.40
2013,09,29,04,51,989.44
2013,09,29,04,52,989.47
2013,09,29,04,53,989.47
2013,09,29,04,54,989.50
2013,09,29,04,55,989.47
2013,09,29,04,56,989.47
2013,09,29,04,57,989.50
2013,09,29,04,58,989.47
2013,09,29,04,59,989.50
2013,09,29,05,00,989.50
2013,09,29,05,01,989.54
2013,09,29,05,02,989.54
2013,09,29,05,03,989.57
2013,09,29,05,04,989.60
2013,09,29,05,05,989.60
2013,09,29,05,06,989.64
2013,09,29,05,07,989.57
2013,09,29,05,08,989.57
2013,09,29,05,09,989.57
2013,09,29,05,10,989.59
2013,09,29,05,11,989.50
2013,09,29,05,12,989.50
2013,09,29,05,13,989.54
2013,09,29,05,14,989.50
2013,09,29,05,15,989.50
2013,09,29,05,16,989.58
2013,09,29,05,17,989.64
2013,09,29,05,18,989.64
2013,09,29,05,19,989.63
2013,09,29,05,20,989.57
2013,09,29,05,21,989.60
2013,09,29,05,22,989.64
2013,09,29,05,23,989.60
2013,09,29,05,24,989.67
2013,09,29,05,25,989.60
2013,09,29,05,26,989.65
2013,09,29,05,27,989.78
2013,09,29,05,28,989.84
2013,09,29,05,29,989.81
2013,09,29,05,30,989.84
2013,09,29,05,31,989.93
2013,09,29,05,32,989.81
2013,09,29,05,33,989.84
2013,09,29,05,34,989.81
2013,09,29,05,35,989.84
2013,09,29,05,36,989.84
2013,09,29,05,37,989.74
2013,09,29,05,38,989.76
2013,09,29,05,39,989.71
2013,09,29,05,40,989.74
2013,09,29,05,41,989.71
2013,09,29,05,42,989.71
2013,09,29,05,43,989.64
2013,09,29,05,44,989.64
2013,09,29,05,45,989.67
2013,09,29,05,46,989.67
2013,09,29,05,47,989.67
2013,09,29,05,48,989.67
2013,09,29,05,49,989.74
2013,09,29,05,50,989.71
2013,09,29,05,51,989.64
2013,09,29,05,52,989.64
2013,09,29,05,53,989.64
2013,09,29,05,54,989.60
2013,09,29,05,55,989.57
2013,09,29,05,56,989.56
2013,09,29,05,57,989.50
2013,09,29,05,58,989.47
2013,09,29,05,59,989.44
2013,09,29,06,00,989.47
2013,09,29,06,01,989.47
2013,09,29,06,02,989.50
2013,09,29,06,03,989.47
2013,09,29,06,04,989.57
2013,09,29,06,05,989.60
2013,09,29,06,06,989.60
2013,09,29,06,07,989.64
2013,09,29,06,08,989.67
2013,09,29,06,09,989.64
2013,09,29,06,10,989.65
2013,09,29,06,11,989.82
2013,09,29,06,12,989.94
2013,09,29,06,13,989.98
2013,09,29,06,14,990.01
2013,09,29,06,15,989.98
2013,09,29,06,16,990.01
2013,09,29,06,17,990.04
2013,09,29,06,18,990.01
2013,09,29,06,19,989.98
2013,09,29,06,20,989.91
2013,09,29,06,21,989.91
2013,09,29,06,22,989.91
2013,09,29,06,23,989.80
2013,09,29,06,24,989.72
2013,09,29,06,25,989.80
2013,09,29,06,26,989.71
2013,09,29,06,27,989.64
2013,09,29,06,28,989.64
2013,09,29,06,29,989.67
2013,09,29,06,30,989.64
2013,09,29,06,31,989.65
2013,09,29,06,32,989.81
2013,09,29,06,33,989.84
2013,09,29,06,34,989.94
2013,09,29,06,35,989.94
2013,09,29,06,36,989.88
2013,09,29,06,37,989.85
2013,09,29,06,38,989.98
2013,09,29,06,39,989.98
2013,09,29,06,40,989.94
2013,09,29,06,41,989.91
2013,09,29,06,42,989.88
2013,09,29,06,43,989.88
2013,09,29,06,44,989.88
2013,09,29,06,45,989.88
2013,09,29,06,46,989.88
2013,09,29,06,47,989.84
2013,09,29,06,48,989.81
2013,09,29,06,49,989.78
2013,09,29,06,50,989.91
2013,09,29,06,51,989.98
2013,09,29,06,52,989.98
2013,09,29,06,53,990.04
2013,09,29,06,54,990.04
2013,09,29,06,55,990.08
2013,09,29,06,56,990.08
2013,09,29,06,57,990.11
2013,09,29,06,58,990.11
2013,09,29,06,59,990.15
2013,09,29,07,00,990.21
2013,09,29,07,01,990.25
2013,09,29,07,02,990.28
2013,09,29,07,03,990.28
2013,09,29,07,04,990.28
2013,09,29,07,05,990.32
2013,09,29,07,06,990.32
2013,09,29,07,07,990.28
2013,09,29,07,08,990.32
2013,09,29,07,09,990.38
2013,09,29,07,10,990.38
2013,09,29,07,11,990.42
2013,09,29,07,12,990.42
2013,09,29,07,13,990.49
2013,09,29,07,14,990.45
2013,09,29,07,15,990.42
2013,09,29,07,16,990.42
2013,09,29,07,17,990.35
2013,09,29,07,18,990.32
2013,09,29,07,19,990.35
2013,09,29,07,20,990.35
2013,09,29,07,21,990.28
2013,09,29,07,22,990.32
2013,09,29,07,23,990.28
2013,09,29,07,24,990.18
2013,09,29,07,25,990.15
2013,09,29,07,26,990.18
2013,09,29,07,27,990.18
2013,09,29,07,28,990.28
2013,09,29,07,29,990.28
2013,09,29,07,30,990.35
2013,09,29,07,31,990.35
2013,09,29,07,32,990.41
2013,09,29,07,33,990.32
2013,09,29,07,34,990.28
2013,09,29,07,35,990.38
2013,09,29,07,36,990.45
2013,09,29,07,37,990.52
2013,09,29,07,38,990.45
2013,09,29,07,39,990.52
2013,09,29,07,40,990.45
2013,09,29,07,41,990.46
2013,09,29,07,42,990.55
2013,09,29,07,43,990.52
2013,09,29,07,44,990.52
2013,09,29,07,45,990.42
2013,09,29,07,46,990.42
2013,09,29,07,47,990.49
2013,09,29,07,48,990.45
2013,09,29,07,49,990.45
2013,09,29,07,50,990.52
2013,09,29,07,51,990.52
2013,09,29,07,52,990.49
2013,09,29,07,53,990.59
2013,09,29,07,54,990.62
2013,09,29,07,55,990.62
2013,09,29,07,56,990.59
2013,09,29,07,57,990.59
2013,09,29,07,58,990.49
2013,09,29,07,59,990.45
2013,09,29,08,00,990.42
2013,09,29,08,01,990.42
2013,09,29,08,02,990.46
2013,09,29,08,03,990.55
2013,09,29,08,04,990.59
2013,09,29,08,05,990.69
2013,09,29,08,06,990.76
2013,09,29,08,07,990.79
2013,09,29,08,08,990.79
2013,09,29,08,09,990.79
2013,09,29,08,10,990.79
2013,09,29,08,11,990.76
2013,09,29,08,12,990.79
2013,09,29,08,13,990.79
2013,09,29,08,14,990.86
2013,09,29,08,15,990.79
2013,09,29,08,16,990.79
2013,09,29,08,17,990.75
2013,09,29,08,18,990.59
2013,09,29,08,19,990.52
2013,09,29,08,20,990.59
2013,09,29,08,21,990.55
2013,09,29,08,22,990.52
2013,09,29,08,23,990.52
2013,09,29,08,24,990.55
2013,09,29,08,25,990.62
2013,09,29,08,26,990.59
2013,09,29,08,27,990.55
2013,09,29,08,28,990.52
2013,09,29,08,29,990.59
2013,09,29,08,30,990.62
2013,09,29,08,31,990.62
2013,09,29,08,32,990.59
2013,09,29,08,33,990.52
2013,09,29,08,34,990.55
2013,09,29,08,35,990.55
2013,09,29,08,36,990.55
2013,09,29,08,37,990.59
2013,09,29,08,38,990.62
2013,09,29,08,39,990.65
2013,09,29,08,40,990.72
2013,09,29,08,41,990.69
2013,09,29,08,42,990.76
2013,09,29,08,43,990.76
2013,09,29,08,44,990.72
2013,09,29,08,45,990.76
2013,09,29,08,46,990.72
2013,09,29,08,47,990.76
2013,09,29,08,48,990.79
2013,09,29,08,49,990.82
2013,09,29,08,50,990.86
2013,09,29,08,51,990.86
2013,09,29,08,52,990.82
2013,09,29,08,53,990.79
2013,09,29,08,54,990.79
2013,09,29,08,55,990.89
2013,09,29,08,56,990.89
2013,09,29,08,57,990.93
2013,09,29,08,58,990.96
2013,09,29,08,59,990.96
2013,09,29,09,00,990.96
2013,09,29,09,01,990.96
2013,09,29,09,02,990.99
2013,09,29,09,03,991.03
2013,09,29,09,04,991.09
2013,09,29,09,05,991.06
2013,09,29,09,06,990.99
2013,09,29,09,07,991.09
2013,09,29,09,08,991.09
2013,09,29,09,09,991.09
2013,09,29,09,10,991.09
2013,09,29,09,11,991.13
2013,09,29,09,12,991.06
2013,09,29,09,13,991.09
2013,09,29,09,14,991.09
2013,09,29,09,15,991.13
2013,09,29,09,16,991.16
2013,09,29,09,17,991.13
2013,09,29,09,18,991.20
2013,09,29,09,19,991.20
2013,09,29,09,20,991.17
2013,09,29,09,21,991.30
2013,09,29,09,22,991.22
2013,09,29,09,23,991.12
2013,09,29,09,24,991.03
2013,09,29,09,25,990.99
2013,09,29,09,26,990.99
2013,09,29,09,27,990.99
2013,09,29,09,28,991.13
2013,09,29,09,29,991.06
2013,09,29,09,30,991.07
2013,09,29,09,31,991.16
2013,09,29,09,32,991.20
2013,09,29,09,33,991.20
2013,09,29,09,34,991.20
2013,09,29,09,35,991.26
2013,09,29,09,36,991.26
2013,09,29,09,37,991.23
2013,09,29,09,38,991.16
2013,09,29,09,39,991.16
2013,09,29,09,40,991.20
2013,09,29,09,41,991.20
2013,09,29,09,42,991.16
2013,09,29,09,43,991.23
2013,09,29,09,44,991.26
2013,09,29,09,45,991.30
2013,09,29,09,46,991.33
2013,09,29,09,47,991.30
2013,09,29,09,48,991.30
2013,09,29,09,49,991.23
2013,09,29,09,50,991.20
2013,09,29,09,51,991.16
2013,09,29,09,52,991.13
2013,09,29,09,53,991.16
2013,09,29,09,54,991.12
2013,09,29,09,55,991.03
2013,09,29,09,56,991.05
2013,09,29,09,57,990.96
2013,09,29,09,58,991.03
2013,09,29,09,59,991.06
2013,09,29,10,00,991.03
2013,09,29,10,01,991.06
2013,09,29,10,02,991.06
2013,09,29,10,03,991.06
2013,09,29,10,04,991.06
2013,09,29,10,05,991.06
2013,09,29,10,06,991.03
2013,09,29,10,07,991.06
2013,09,29,10,08,991.06
2013,09,29,10,09,991.03
2013,09,29,10,10,991.03
2013,09,29,10,11,990.99
2013,09,29,10,12,990.99
2013,09,29,10,13,990.99
2013,09,29,10,14,990.99
2013,09,29,10,15,990.99
2013,09,29,10,16,990.99
2013,09,29,10,17,991.03
2013,09,29,10,18,990.99
2013,09,29,10,19,990.96
2013,09,29,10,20,990.99
2013,09,29,10,21,990.96
2013,09,29,10,22,991.03
2013,09,29,10,23,990.99
2013,09,29,10,24,991.06
2013,09,29,10,25,990.99
2013,09,29,10,26,991.03
2013,09,29,10,27,991.03
2013,09,29,10,28,990.99
2013,09,29,10,29,990.99
2013,09,29,10,30,990.96
2013,09,29,10,31,990.99
2013,09,29,10,32,990.99
2013,09,29,10,33,990.96
2013,09,29,10,34,990.93
2013,09,29,10,35,990.86
2013,09,29,10,36,990.86
2013,09,29,10,37,990.86
2013,09,29,10,38,990.82
2013,09,29,10,39,990.89
2013,09,29,10,40,990.86
2013,09,29,10,41,990.86
2013,09,29,10,42,990.86
2013,09,29,10,43,990.86
2013,09,29,10,44,990.89
2013,09,29,10,45,990.93
2013,09,29,10,46,990.89
2013,09,29,10,47,990.89
2013,09,29,10,48,990.93
2013,09,29,10,49,990.93
2013,09,29,10,50,990.93
2013,09,29,10,51,990.96
2013,09,29,10,52,990.96
2013,09,29,10,53,990.99
2013,09,29,10,54,990.96
2013,09,29,10,55,990.96
2013,09,29,10,56,990.96
2013,09,29,10,57,990.93
2013,09,29,10,58,990.93
2013,09,29,10,59,990.93
2013,09,29,11,00,990.93
2013,09,29,11,01,990.96
2013,09,29,11,02,990.96
2013,09,29,11,03,990.89
2013,09,29,11,04,990.86
2013,09,29,11,05,990.89
2013,09,29,11,06,990.86
2013,09,29,11,07,990.82
2013,09,29,11,08,990.89
2013,09,29,11,09,990.86
2013,09,29,11,10,990.79
2013,09,29,11,11,990.79
2013,09,29,11,12,990.79
2013,09,29,11,13,990.86
2013,09,29,11,14,990.86
2013,09,29,11,15,990.86
2013,09,29,11,16,990.86
2013,09,29,11,17,990.86
2013,09,29,11,18,990.86
2013,09,29,11,19,990.79
2013,09,29,11,20,990.82
2013,09,29,11,21,990.82
2013,09,29,11,22,990.82
2013,09,29,11,23,990.79
2013,09,29,11,24,990.79
2013,09,29,11,25,990.82
2013,09,29,11,26,990.82
2013,09,29,11,27,990.89
2013,09,29,11,28,990.82
2013,09,29,11,29,990.86
2013,09,29,11,30,990.82
2013,09,29,11,31,990.86
2013,09,29,11,32,990.82
2013,09,29,11,33,990.86
2013,09,29,11,34,990.82
2013,09,29,11,35,990.79
2013,09,29,11,36,990.79
2013,09,29,11,37,990.86
2013,09,29,11,38,990.86
2013,09,29,11,39,990.89
2013,09,29,11,40,990.89
2013,09,29,11,41,990.89
2013,09,29,11,42,990.96
2013,09,29,11,43,990.96
2013,09,29,11,44,990.93
2013,09,29,11,45,990.93
2013,09,29,11,46,990.89
2013,09,29,11,47,990.89
2013,09,29,11,48,990.89
2013,09,29,11,49,990.96
2013,09,29,11,50,990.96
2013,09,29,11,51,990.96
2013,09,29,11,52,990.99
2013,09,29,11,53,991.03
2013,09,29,11,54,990.99
2013,09,29,11,55,991.03
2013,09,29,11,56,991.06
2013,09,29,11,57,991.03
2013,09,29,11,58,991.03
2013,09,29,11,59,991.03
2013,09,29,12,00,991.06
2013,09,29,12,01,991.09
2013,09,29,12,02,991.09
2013,09,29,12,03,991.06
2013,09,29,12,04,991.09
2013,09,29,12,05,991.13
2013,09,29,12,06,991.06
2013,09,29,12,07,991.03
2013,09,29,12,08,991.06
2013,09,29,12,09,991.09
2013,09,29,12,10,991.09
2013,09,29,12,11,991.06
2013,09,29,12,12,990.99
2013,09,29,12,13,991.03
2013,09,29,12,14,991.06
2013,09,29,12,15,991.09
2013,09,29,12,16,991.09
2013,09,29,12,17,991.06
2013,09,29,12,18,991.06
2013,09,29,12,19,991.13
2013,09,29,12,20,991.06
2013,09,29,12,21,991.06
2013,09,29,12,22,990.96
2013,09,29,12,23,990.93
2013,09,29,12,24,990.93
2013,09,29,12,25,990.89
2013,09,29,12,26,990.89
2013,09,29,12,27,990.93
2013,09,29,12,28,990.96
2013,09,29,12,29,990.93
2013,09,29,12,30,990.96
2013,09,29,12,31,990.93
2013,09,29,12,32,990.93
2013,09,29,12,33,990.89
2013,09,29,12,34,990.86
2013,09,29,12,35,990.89
2013,09,29,12,36,990.86
2013,09,29,12,37,990.86
2013,09,29,12,38,990.82
2013,09,29,12,39,990.82
2013,09,29,12,40,990.82
2013,09,29,12,41,990.76
2013,09,29,12,42,990.76
2013,09,29,12,43,990.72
2013,09,29,12,44,990.76
2013,09,29,12,45,990.76
2013,09,29,12,46,990.72
2013,09,29,12,47,990.76
2013,09,29,12,48,990.69
2013,09,29,12,49,990.65
2013,09,29,12,50,990.62
2013,09,29,12,51,990.62
2013,09,29,12,52,990.59
2013,09,29,12,53,990.59
2013,09,29,12,54,990.55
2013,09,29,12,55,990.46
2013,09,29,12,56,990.55
2013,09,29,12,57,990.55
2013,09,29,12,58,990.49
2013,09,29,12,59,990.49
2013,09,29,13,00,990.49
2013,09,29,13,01,990.42
2013,09,29,13,02,990.38
2013,09,29,13,03,990.38
2013,09,29,13,04,990.38
2013,09,29,13,05,990.38
2013,09,29,13,06,990.35
2013,09,29,13,07,990.38
2013,09,29,13,08,990.35
2013,09,29,13,09,990.32
2013,09,29,13,10,990.32
2013,09,29,13,11,990.28
2013,09,29,13,12,990.28
2013,09,29,13,13,990.25
2013,09,29,13,14,990.32
2013,09,29,13,15,990.35
2013,09,29,13,16,990.28
2013,09,29,13,17,990.28
2013,09,29,13,18,990.28
2013,09,29,13,19,990.25
2013,09,29,13,20,990.28
2013,09,29,13,21,990.32
2013,09,29,13,22,990.25
2013,09,29,13,23,990.28
2013,09,29,13,24,990.25
2013,09,29,13,25,990.21
2013,09,29,13,26,990.21
2013,09,29,13,27,990.21
2013,09,29,13,28,990.18
2013,09,29,13,29,990.18
2013,09,29,13,30,990.18
2013,09,29,13,31,990.15
2013,09,29,13,32,990.15
2013,09,29,13,33,990.15
2013,09,29,13,34,990.11
2013,09,29,13,35,990.11
2013,09,29,13,36,990.08
2013,09,29,13,37,990.08
2013,09,29,13,38,990.04
2013,09,29,13,39,990.04
2013,09,29,13,40,990.04
2013,09,29,13,41,990.08
2013,09,29,13,42,990.01
2013,09,29,13,43,990.01
2013,09,29,13,44,989.98
2013,09,29,13,45,989.98
2013,09,29,13,46,989.94
2013,09,29,13,47,989.94
2013,09,29,13,48,989.91
2013,09,29,13,49,989.88
2013,09,29,13,50,989.88
2013,09,29,13,51,989.81
2013,09,29,13,52,989.74
2013,09,29,13,53,989.71
2013,09,29,13,54,989.71
2013,09,29,13,55,989.67
2013,09,29,13,56,989.64
2013,09,29,13,57,989.67
2013,09,29,13,58,989.60
2013,09,29,13,59,989.54
2013,09,29,14,00,989.54
2013,09,29,14,01,989.54
2013,09,29,14,02,989.50
2013,09,29,14,03,989.44
2013,09,29,14,04,989.40
2013,09,29,14,05,989.37
2013,09,29,14,06,989.37
2013,09,29,14,07,989.33
2013,09,29,14,08,989.33
2013,09,29,14,09,989.33
2013,09,29,14,10,989.37
2013,09,29,14,11,989.37
2013,09,29,14,12,989.37
2013,09,29,14,13,989.40
2013,09,29,14,14,989.37
2013,09,29,14,15,989.40
2013,09,29,14,16,989.33
2013,09,29,14,17,989.30
2013,09,29,14,18,989.33
2013,09,29,14,19,989.27
2013,09,29,14,20,989.27
2013,09,29,14,21,989.23
2013,09,29,14,22,989.23
2013,09,29,14,23,989.20
2013,09,29,14,24,989.16
2013,09,29,14,25,989.16
2013,09,29,14,26,989.10
2013,09,29,14,27,989.13
2013,09,29,14,28,989.06
2013,09,29,14,29,989.10
2013,09,29,14,30,989.03
2013,09,29,14,31,989.06
2013,09,29,14,32,989.10
2013,09,29,14,33,989.10
2013,09,29,14,34,989.10
2013,09,29,14,35,989.10
2013,09,29,14,36,989.03
2013,09,29,14,37,989.06
2013,09,29,14,38,989.06
2013,09,29,14,39,989.03
2013,09,29,14,40,989.03
2013,09,29,14,41,989.00
2013,09,29,14,42,989.00
2013,09,29,14,43,988.93
2013,09,29,14,44,988.93
2013,09,29,14,45,988.89
2013,09,29,14,46,988.83
2013,09,29,14,47,988.83
2013,09,29,14,48,988.79
2013,09,29,14,49,988.72
2013,09,29,14,50,988.69
2013,09,29,14,51,988.66
2013,09,29,14,52,988.66
2013,09,29,14,53,988.66
2013,09,29,14,54,988.66
2013,09,29,14,55,988.62
2013,09,29,14,56,988.62
2013,09,29,14,57,988.59
2013,09,29,14,58,988.52
2013,09,29,14,59,988.49
2013,09,29,15,00,988.45
2013,09,29,15,01,988.45
2013,09,29,15,02,988.39
2013,09,29,15,03,988.39
2013,09,29,15,04,988.32
2013,09,29,15,05,988.28
2013,09,29,15,06,988.32
2013,09,29,15,07,988.32
2013,09,29,15,08,988.28
2013,09,29,15,09,988.22
2013,09,29,15,10,988.22
2013,09,29,15,11,988.25
2013,09,29,15,12,988.22
2013,09,29,15,13,988.15
2013,09,29,15,14,988.01
2013,09,29,15,15,988.01
2013,09,29,15,16,987.95
2013,09,29,15,17,987.88
2013,09,29,15,18,987.84
2013,09,29,15,19,987.78
2013,09,29,15,20,987.78
2013,09,29,15,21,987.71
2013,09,29,15,22,987.67
2013,09,29,15,23,987.61
2013,09,29,15,24,987.54
2013,09,29,15,25,987.47
2013,09,29,15,26,987.40
2013,09,29,15,27,987.37
2013,09,29,15,28,987.37
2013,09,29,15,29,987.34
2013,09,29,15,30,987.34
2013,09,29,15,31,987.37
2013,09,29,15,32,987.30
2013,09,29,15,33,987.27
2013,09,29,15,34,987.16
2013,09,29,15,35,987.06
2013,09,29,15,36,987.06
2013,09,29,15,37,986.96
2013,09,29,15,38,986.90
2013,09,29,15,39,986.86
2013,09,29,15,40,986.86
2013,09,29,15,41,986.83
2013,09,29,15,42,986.79
2013,09,29,15,43,986.76
2013,09,29,15,44,986.69
2013,09,29,15,45,986.69
2013,09,29,15,46,986.69
2013,09,29,15,47,986.66
2013,09,29,15,48,986.69
2013,09,29,15,49,986.69
2013,09,29,15,50,986.66
2013,09,29,15,51,986.66
2013,09,29,15,52,986.62
2013,09,29,15,53,986.59
2013,09,29,15,54,986.59
2013,09,29,15,55,986.56
2013,09,29,15,56,986.52
2013,09,29,15,57,986.46
2013,09,29,15,58,986.39
2013,09,29,15,59,986.29
2013,09,29,16,00,986.29
2013,09,29,16,01,986.25
2013,09,29,16,02,986.29
2013,09,29,16,03,986.22
2013,09,29,16,04,986.24
2013,09,29,16,05,986.15
2013,09,29,16,06,986.08
2013,09,29,16,07,986.02
2013,09,29,16,08,985.98
2013,09,29,16,09,985.95
2013,09,29,16,10,985.91
2013,09,29,16,11,985.85
2013,09,29,16,12,985.88
2013,09,29,16,13,985.81
2013,09,29,16,14,985.74
2013,09,29,16,15,985.71
2013,09,29,16,16,985.68
2013,09,29,16,17,985.68
2013,09,29,16,18,985.64
2013,09,29,16,19,985.64
2013,09,29,16,20,985.57
2013,09,29,16,21,985.57
2013,09,29,16,22,985.57
2013,09,29,16,23,985.57
2013,09,29,16,24,985.57
2013,09,29,16,25,985.57
2013,09,29,16,26,985.51
2013,09,29,16,27,985.44
2013,09,29,16,28,985.41
2013,09,29,16,29,985.37
2013,09,29,16,30,985.37
2013,09,29,16,31,985.30
2013,09,29,16,32,985.27
2013,09,29,16,33,985.24
2013,09,29,16,34,985.20
2013,09,29,16,35,985.26
2013,09,29,16,36,985.10